FW6886 Weather Reports


time (UTC)temp
F
wind
direction
speed
knots
gust
knots
rain 1hr
in
rain 24hr
in
rain mn
in
humidity
%
barometer
mb
20260504040012 58 228 2.6 4.3 0.00 0.00 0.00 36 1002.3
20260504034512 58 232 1.7 3.5 0.00 0.00 0.00 35 1002.5
20260504033009 59 232 2.6 5.2 0.00 0.00 0.00 34 1002.7
20260504031507 59 235 2.6 6.1 0.00 0.00 0.00 34 1003.0
20260504030008 59 240 2.6 4.3 0.00 0.00 0.00 34 1003.0
20260504024509 60 244 1.7 3.5 0.00 0.00 0.00 33 1003.0
20260504023008 60 246 1.7 3.5 0.00 0.00 0.00 32 1003.0
20260504021505 60 268 1.7 5.2 0.00 0.00 0.00 32 1003.0
20260504020007 61 279 1.7 3.5 0.00 0.00 0.00 32 1003.1
20260504014503 62 280 0.9 2.6 0.00 0.00 0.00 31 1003.1
20260504013002 62 280 1.7 2.6 0.00 0.00 0.00 31 1003.2
20260504011606 63 283 0.9 6.1 0.00 0.00 0.00 31 1003.2
20260504010101 64 273 2.6 7.8 0.00 0.00 0.00 30 1003.2
20260504004559 65 249 1.7 3.5 0.00 0.00 0.00 29 1003.2
20260504003100 66 239 1.7 7.8 0.00 0.00 0.00 28 1003.3
20260504001609 66 245 3.5 9.6 0.00 0.00 0.00 27 1003.3
20260504000056 67 266 2.6 9.6 0.00 0.00 0.00 27 1003.3
20260503234556 67 261 5.2 10.4 0.00 0.00 0.00 28 1003.3
20260503233055 68 286 3.5 13.9 0.00 0.00 0.00 28 1003.3
20260503231553 69 285 4.3 12.2 0.00 0.00 0.00 29 1003.3
20260503230053 69 259 4.3 10.4 0.00 0.00 0.00 27 1003.4
20260503224552 70 242 1.7 10.4 0.00 0.00 0.00 26 1003.5
20260503223051 71 271 1.7 12.2 0.00 0.00 0.00 24 1003.7
20260503221550 72 298 7.0 16.5 0.00 0.00 0.00 23 1003.5
20260503220052 72 340 5.2 12.2 0.00 0.00 0.00 22 1003.5
20260503214549 72 304 3.5 11.3 0.00 0.00 0.00 22 1003.5
20260503213055 72 306 5.2 13.0 0.00 0.00 0.00 23 1003.5
20260503211545 72 215 2.6 12.2 0.00 0.00 0.00 25 1003.5
20260503210049 73 275 2.6 13.0 0.00 0.00 0.00 27 1003.6
20260503204542 73 329 7.0 13.0 0.00 0.00 0.00 28 1003.9
20260503203040 72 355 2.6 15.6 0.00 0.00 0.00 28 1003.9
20260503201537 72 327 4.3 14.8 0.00 0.00 0.00 31 1004.1
20260503200042 72 321 6.1 16.5 0.00 0.00 0.00 29 1004.3
20260503194538 72 313 7.0 13.9 0.00 0.00 0.00 33 1004.3
20260503193036 72 343 7.0 11.3 0.00 0.00 0.00 34 1004.3
20260503191534 72 325 4.3 10.4 0.00 0.00 0.00 34 1004.4
20260503190033 72 294 4.3 11.3 0.00 0.00 0.00 33 1004.5
20260503184532 72 17 3.5 14.8 0.00 0.00 0.00 29 1004.5
20260503183047 72 293 4.3 11.3 0.00 0.00 0.00 34 1004.7
20260503181528 72 310 4.3 10.4 0.00 0.00 0.00 35 1004.7
20260503180028 71 319 3.5 12.2 0.00 0.00 0.00 34 1004.9
20260503174527 71 331 7.0 14.8 0.00 0.00 0.00 35 1005.0
20260503173025 71 313 5.2 9.6 0.00 0.00 0.00 34 1005.0
20260503171521 70 14 4.3 13.0 0.00 0.00 0.00 36 1005.1
20260503081505 53 200 4.3 8.7 0.00 0.00 0.00 56 1006.2
20260503080117 53 194 3.5 7.8 0.00 0.00 0.00 55 1006.1
20260503071552 54 221 2.6 10.4 0.00 0.00 0.00 50 1007.4
20260503070150 54 207 4.3 9.6 0.00 0.00 0.00 51 1007.5
20260503054544 56 179 1.7 6.1 0.00 0.00 0.00 49 1008.2
20260503053033 57 157 3.5 7.8 0.00 0.00 0.00 48 1008.3
20260503051529 57 221 2.6 5.2 0.00 0.00 0.00 48 1008.4
20260503050035 57 188 1.7 5.2 0.00 0.00 0.00 48 1008.7
20260503044526 57 188 2.6 5.2 0.00 0.00 0.00 47 1008.7
20260503043023 57 183 2.6 7.0 0.00 0.00 0.00 46 1009.1
20260503041521 57 191 2.6 7.0 0.00 0.00 0.00 47 1009.3